Theta_e
354 354 354 354 354 355 356 355 356 354 355 354 356 356 356 357 358 357 358 359 361 361 362 362 362 361 361 360 360 359 359 357 357 355 355 349 346 346 342 341 343 341
354 355 355 355 354 355 356 357 356 356 355 356 355 357 358 359 359 358 358 360 361 361 362 363 361 361 360 359 360 359 357 356 356 358 356 349 348 346 345 340 340 342
354 354 354 354 354 354 355 357 357 357 356 357 358 357 358 361 360 358 358 360 361 361 361 362 362 361 361 359 360 359 359 356 355 357 356 349 349 345 346 343 339 341
354 354 354 355 355 355 355 355 357 358 358 357 358 359 359 360 360 358 357 362 360 360 361 361 362 361 360 360 360 358 359 358 357 356 355 351 350 347 347 344 341 340
354 354 355 355 355 356 355 353 355 358 358 359 360 360 360 358 358 358 358 358 359 359 360 360 361 361 360 360 361 358 358 359 357 355 353 351 350 348 348 347 342 339
355 355 355 355 355 355 354 353 353 357 359 359 360 360 360 360 358 358 358 359 358 359 359 360 360 361 361 360 362 359 359 358 358 356 354 350 349 350 349 348 344 340
354 354 354 355 355 355 355 354 353 354 357 360 361 360 359 359 358 358 357 358 359 359 359 360 360 360 362 361 361 360 359 359 358 356 355 351 350 348 349 348 346 343
354 354 355 356 355 355 355 355 354 354 355 358 359 360 359 357 358 358 358 356 359 359 359 360 360 360 361 362 361 360 359 360 359 357 355 354 350 348 347 349 347 344
355 354 355 355 355 355 355 355 355 354 355 355 357 360 360 358 356 358 358 357 356 358 359 359 360 360 361 362 361 360 359 358 359 358 356 354 352 349 348 348 347 345
355 355 354 355 355 355 355 355 355 355 355 355 356 358 359 359 356 355 358 358 356 356 357 358 360 360 360 361 361 361 359 357 357 357 357 355 354 351 349 348 347 346
355 355 354 354 354 355 355 355 356 355 355 355 356 356 358 359 358 356 355 358 358 356 356 356 358 360 359 359 360 361 360 359 357 356 357 356 355 353 354 349 348 347
356 355 354 354 354 354 354 355 355 356 356 356 356 356 357 358 358 357 354 355 358 358 358 357 358 359 359 359 359 360 360 359 358 356 356 357 356 354 353 351 349 348
356 355 355 355 354 354 354 354 354 354 356 356 357 357 356 357 358 358 357 354 356 359 359 359 358 359 360 359 359 359 359 359 357 356 356 357 357 356 354 353 351 350
356 356 356 356 355 354 353 353 353 353 354 356 357 356 355 356 357 358 358 357 355 356 359 360 360 359 359 359 358 358 359 358 357 356 355 355 356 357 356 354 353 352
356 356 356 356 356 354 353 353 353 352 353 355 356 355 356 355 357 358 357 357 357 357 357 359 361 360 359 359 358 357 358 358 358 357 356 355 354 356 356 355 354 353
356 356 356 356 356 355 354 353 353 353 352 353 356 356 355 355 355 356 357 357 357 358 358 358 359 361 352 339 344 357 357 358 359 358 357 355 354 353 355 356 355 354
356 356 356 355 355 356 355 353 352 353 352 352 354 356 356 355 355 354 356 357 357 358 358 358 359 359 340 333 335 340 354 357 357 358 358 357 355 354 353 355 355 355
357 356 356 355 354 355 355 354 352 352 352 352 352 355 357 356 355 354 354 357 358 358 359 359 359 344 334 332 333 333 340 358 358 358 358 357 357 355 355 355 355 355
358 357 356 355 354 354 355 355 353 351 351 351 351 354 357 356 356 355 353 355 357 357 357 359 359 342 333 330 331 331 332 344 358 358 358 358 357 356 356 355 356 356
359 357 357 356 356 355 355 355 353 351 351 352 353 353 354 356 357 356 355 353 355 357 357 359 360 343 331 328 328 328 330 337 357 357 357 357 358 357 357 356 356 356
359 358 357 357 357 356 355 355 354 353 352 352 352 352 352 355 356 356 356 355 354 355 358 358 360 339 328 326 325 325 328 331 355 357 356 356 357 358 357 356 356 357
360 359 358 358 358 357 356 355 355 354 353 353 353 353 353 354 355 357 357 356 356 354 354 357 360 335 328 325 323 324 326 341 352 355 354 354 354 355 357 357 356 356
361 360 359 359 359 358 357 356 356 356 356 355 353 352 352 353 353 355 357 357 357 356 354 353 357 340 325 323 322 322 325 346 351 353 354 354 354 354 355 356 356 356
362 361 360 360 360 359 359 359 358 359 358 358 354 353 352 353 353 354 355 357 357 357 356 355 354 342 322 321 319 319 328 348 351 352 353 354 354 354 355 355 355 347
364 363 362 361 360 361 361 360 360 360 360 361 358 356 354 354 354 354 354 355 357 357 347 353 356 346 318 318 317 318 329 349 352 352 352 353 354 353 354 355 355 351
365 364 363 362 361 362 363 362 362 362 362 362 361 359 357 355 355 355 355 355 356 357 358 357 357 358 339 314 315 315 320 348 353 352 352 353 354 353 353 353 354 355
Wind_Speed
14 12 12 12 12 11 11 11 10 11 9 9 9 10 11 10 10 10 9 9 9 9 8 8 8 7 8 7 6 6 7 8 7 7 7 7 7 6 6 6 4 6
16 14 12 11 10 9 9 11 11 11 11 9 9 8 8 9 10 10 9 10 10 10 8 8 8 8 8 7 6 6 7 8 8 7 7 9 7 7 6 6 5 5
16 15 15 14 13 13 12 11 11 11 10 10 8 8 7 9 10 10 10 9 10 10 10 8 8 8 8 8 7 6 7 8 8 8 8 9 8 8 6 7 6 5
16 16 15 15 14 14 12 10 10 10 9 9 10 9 9 8 9 10 9 10 10 10 10 10 9 9 9 8 8 7 7 8 8 8 8 7 8 8 8 6 7 6
17 16 15 15 14 13 12 12 12 11 12 12 10 9 9 9 9 9 10 10 10 10 10 11 9 9 9 8 8 8 7 7 7 7 8 8 8 8 8 7 7 8
16 16 17 16 15 14 13 13 13 12 12 11 12 10 10 11 11 10 10 11 10 11 11 11 10 10 10 9 9 9 8 8 8 7 8 9 8 8 7 7 7 8
17 16 16 14 14 14 14 14 13 12 12 11 10 11 10 10 11 12 12 11 12 11 12 11 11 11 10 10 9 9 9 9 8 9 8 7 8 9 8 8 8 7
17 15 15 14 15 15 15 14 13 12 12 10 11 12 12 11 11 11 12 12 12 12 12 12 12 11 10 10 10 10 10 8 9 10 10 8 8 9 9 7 8 9
16 15 15 15 16 14 15 15 14 13 11 12 12 11 11 12 12 11 11 12 12 12 12 12 12 12 11 11 12 12 12 11 10 11 12 11 10 10 10 9 8 9
16 15 17 17 17 15 16 16 14 13 12 12 12 11 12 12 12 12 10 12 13 12 12 12 13 13 13 13 13 13 12 12 11 11 12 12 12 11 11 11 11 10
18 17 17 18 17 15 17 16 15 14 12 13 12 12 13 12 11 12 11 11 12 13 13 13 13 13 14 13 13 13 13 13 12 12 12 13 13 13 11 12 12 12
19 18 19 19 19 18 18 17 15 14 14 13 14 14 13 13 13 12 12 13 13 13 14 14 13 13 14 15 14 13 13 13 13 13 12 12 12 13 13 12 12 13
19 19 18 18 18 18 16 15 15 15 15 15 14 15 14 13 14 14 13 14 14 13 14 14 14 14 14 14 13 13 13 14 13 13 13 11 12 13 13 13 13 13
18 18 18 18 17 16 16 16 16 15 15 14 14 15 15 15 14 15 14 13 14 14 14 13 13 14 13 13 13 13 13 14 14 13 13 12 12 12 13 13 14 14
17 16 16 16 16 16 16 16 16 15 14 14 14 15 14 15 14 14 14 14 14 14 14 13 13 13 12 13 13 14 13 14 14 14 13 13 12 12 13 14 14 14
16 15 15 15 15 16 16 16 15 15 15 15 15 15 15 14 13 13 14 15 14 14 14 13 13 11 14 20 18 14 14 12 12 13 13 13 13 13 13 14 15 14
15 15 15 16 16 15 15 16 16 14 14 15 14 14 15 14 13 14 14 14 15 15 15 14 12 12 18 18 20 21 15 13 13 13 13 13 13 13 13 14 14 14
15 15 16 16 15 16 15 15 14 14 14 14 13 14 13 12 14 16 15 14 14 15 15 14 13 16 19 19 20 21 19 15 12 12 12 13 13 14 13 13 13 13
15 16 16 16 16 16 14 14 14 14 13 13 15 14 12 14 15 15 15 13 14 16 16 15 14 18 19 21 21 21 22 19 12 13 13 13 13 14 14 13 12 12
16 16 16 16 14 14 14 14 14 15 14 13 12 12 13 14 14 16 15 14 14 14 15 15 15 17 21 21 21 22 22 20 15 14 13 13 14 15 14 14 14 13
16 16 16 15 15 14 14 14 14 14 14 12 12 13 14 14 15 15 15 15 14 13 13 15 14 19 21 22 22 23 23 20 16 14 12 13 13 14 15 14 13 13
16 16 16 15 14 14 14 15 14 14 15 13 12 12 12 12 11 12 14 15 15 15 13 14 14 19 21 23 23 23 23 16 15 15 14 13 14 14 13 13 13 13
15 16 15 15 15 15 15 15 14 14 13 11 12 12 12 13 13 14 13 14 15 15 16 14 13 16 20 22 23 23 17 13 14 14 14 14 14 13 13 13 13 14
14 15 15 15 15 15 15 13 13 12 12 11 13 13 13 14 13 12 12 12 14 15 16 15 14 12 18 20 21 21 19 15 13 13 14 14 14 12 10 11 14 19
13 14 15 15 15 15 14 14 13 12 11 10 12 12 12 10 9 10 11 11 12 13 14 15 12 10 15 18 19 21 19 13 13 13 14 14 12 12 12 11 12 14
12 14 14 14 14 13 12 12 10 10 11 11 10 10 10 10 9 9 11 11 10 11 11 11 12 11 10 17 18 19 21 15 12 12 14 14 12 13 12 13 13 11
Wind_Direction
189 189 189 191 195 194 189 189 190 192 191 188 184 187 189 190 187 188 185 185 186 185 185 188 187 185 188 187 184 176 175 177 173 174 171 179 187 175 187 205 175 174
191 191 192 194 197 197 194 190 189 190 192 190 190 181 185 181 188 186 183 185 186 189 185 183 187 185 184 187 189 174 175 175 178 178 168 180 188 184 190 200 195 179
190 191 193 194 196 196 195 192 190 192 192 193 187 183 179 183 185 186 185 182 186 189 188 185 184 186 183 186 187 180 173 179 180 182 172 182 183 187 194 191 202 189
192 193 194 197 197 197 196 190 190 191 190 191 194 189 186 183 181 186 187 185 185 189 190 188 187 187 185 183 181 186 179 182 184 177 178 180 186 186 193 186 197 204
194 195 197 199 199 197 194 196 193 190 191 193 191 187 186 187 186 186 186 191 187 188 188 191 188 187 186 183 180 186 186 183 188 177 181 184 190 185 193 185 190 202
200 199 197 197 197 193 195 199 199 193 191 188 192 189 188 186 190 191 188 189 190 189 189 190 191 189 186 186 184 189 187 190 191 185 181 189 191 191 190 193 187 196
202 202 202 199 197 195 197 200 200 197 194 192 185 193 187 186 190 193 192 190 189 190 190 191 191 191 188 186 188 192 192 192 191 193 188 190 190 195 194 190 195 194
203 202 201 198 197 196 199 200 200 198 196 190 189 193 191 192 190 192 192 191 189 191 191 191 191 192 190 187 191 192 195 192 193 192 197 191 189 197 198 191 192 199
202 202 200 200 200 199 202 201 199 199 194 193 195 192 192 196 196 192 191 191 193 191 191 191 191 192 191 190 194 194 194 196 194 192 195 195 192 198 198 193 190 199
202 202 201 201 201 201 202 202 199 198 194 196 196 194 193 197 196 196 189 191 195 194 193 192 191 193 194 194 195 195 195 196 196 195 196 197 197 196 195 195 198 197
201 201 201 202 203 203 204 202 199 197 195 197 195 197 197 195 196 195 194 191 195 197 197 197 195 194 195 197 198 197 196 196 198 198 198 199 199 198 194 195 199 202
201 199 200 201 202 203 203 202 199 198 195 196 196 198 197 196 195 195 196 198 198 198 198 200 198 197 198 199 198 196 197 199 200 201 201 200 202 202 200 197 199 204
200 200 200 201 201 202 201 200 201 199 196 196 195 198 197 197 197 197 198 199 201 199 200 200 200 201 201 200 199 197 197 199 201 203 204 202 202 203 204 204 204 204
201 200 201 201 200 200 200 201 200 200 199 195 193 198 200 200 198 198 198 199 202 203 203 201 201 203 202 201 200 199 198 201 202 202 203 205 204 205 205 207 207 207
199 200 201 200 199 198 200 201 200 199 197 195 194 198 200 202 201 197 197 200 203 204 205 204 204 205 203 200 200 202 201 202 202 203 203 206 207 207 208 209 210 211
197 198 198 198 198 199 201 201 200 198 198 198 197 198 199 200 201 198 200 200 201 204 205 207 209 207 204 199 198 200 202 203 202 205 205 206 208 210 211 211 212 212
194 197 196 198 198 199 199 200 201 198 198 199 198 196 197 197 198 202 204 200 201 202 205 208 210 209 201 198 199 200 201 204 203 205 206 208 209 210 213 213 214 213
193 194 197 198 197 199 198 200 200 199 199 198 198 197 197 193 198 204 205 200 201 205 207 208 210 208 198 197 198 200 201 205 207 207 207 210 211 212 215 216 216 215
189 192 196 197 199 199 198 198 199 201 201 198 200 198 191 195 201 202 205 203 201 204 208 208 212 204 197 196 197 199 202 205 210 210 209 211 212 214 216 214 214 216
188 191 193 196 196 198 198 197 198 202 202 200 199 195 196 200 201 203 205 206 204 204 208 210 211 203 196 196 197 198 202 203 214 211 213 214 214 216 217 216 213 214
188 188 191 192 193 194 195 198 199 203 203 202 198 198 199 201 201 204 207 207 208 207 207 212 214 202 194 196 196 197 201 201 214 216 217 219 220 219 220 219 217 216
186 188 189 189 190 191 194 198 198 200 202 201 202 204 206 206 208 207 207 209 211 211 211 214 216 200 195 195 196 198 197 201 212 218 220 221 223 223 221 221 220 218
187 187 188 188 188 191 196 197 197 200 203 199 205 207 205 206 208 208 209 209 210 212 216 219 217 204 194 195 195 195 189 204 210 218 224 227 227 225 225 223 222 220
186 186 186 188 189 193 194 196 197 199 200 196 204 207 210 210 209 213 214 212 211 214 215 220 222 203 192 195 193 188 189 200 208 215 225 228 232 231 229 229 228 224
185 186 187 188 191 192 191 193 196 197 196 194 204 209 215 215 211 214 217 218 218 219 219 222 228 212 183 190 189 187 191 203 203 213 222 227 228 234 232 233 233 227
183 185 187 189 190 189 191 192 189 190 193 195 201 205 212 215 214 215 217 219 218 219 219 218 222 224 184 180 182 189 193 199 206 210 222 223 224 230 233 234 235 236